Location: Arborea
(39.7744°N, 8.5819°E)
Time: 21:50:41
(UTC+00:00)

DOVE 4 - Visible Passes

Search period start: 27 May 2024 00:00
Search period end: 06 June 2024 00:00
Orbit: 581 x 778 km, 97.7° (Epoch: 27 May)

Date Brightness Start Highest point End Pass type
(mag) Time Alt. Az. Time Alt. Az. Time Alt. Az.
27 May ? 20:16:13 10° NNE 20:20:53 33° E 20:22:51 25° SE visible
27 May ? 21:53:38 10° N 21:58:03 29° WNW 22:01:16 16° WSW visible
28 May ? 20:51:37 10° NNE 20:56:49 75° ESE 20:59:08 34° S visible
28 May ? 22:30:48 10° NNW 22:33:27 14° WNW 22:36:06 10° W visible
29 May ? 19:51:20 10° NE 19:54:59 19° E 19:56:59 16° ESE visible
29 May ? 21:27:32 10° N 21:32:33 50° WNW 21:35:24 24° SW visible
30 May ? 20:26:08 10° NNE 20:31:03 42° E 20:33:15 28° SSE visible
30 May ? 22:04:00 10° NNW 22:08:04 24° WNW 22:11:41 12° WSW visible
31 May ? 19:28:09 10° ENE 19:28:58 10° E 19:29:48 10° E visible
31 May ? 21:01:42 10° NNE 21:06:55 87° WNW 21:09:31 30° SSW visible
31 May ? 22:41:53 10° NW 22:43:23 11° WNW 22:44:53 10° WNW visible
01 Jun ? 20:01:00 10° NE 20:05:10 24° E 20:07:21 18° SE visible
01 Jun ? 21:37:45 10° N 21:42:33 40° WNW 21:45:46 19° SW visible
02 Jun ? 20:36:05 10° NNE 20:41:10 53° E 20:43:35 29° SSE visible
02 Jun ? 22:14:26 10° NNW 22:18:00 19° WNW 22:21:32 10° WSW visible
03 Jun ? 19:36:39 10° ENE 19:39:09 13° E 19:41:24 11° ESE visible
03 Jun ? 21:11:47 10° N 21:16:57 69° WNW 21:19:49 26° SSW visible
04 Jun ? 20:10:46 10° NE 20:15:17 30° E 20:17:37 21° SE visible
04 Jun ? 21:48:00 10° N 21:52:31 32° WNW 21:56:02 15° SW visible
05 Jun ? 20:46:03 10° NNE 20:51:13 68° E 20:53:50 28° S visible
05 Jun ? 22:25:00 10° NNW 22:27:53 15° WNW 22:30:44 10° W visible
